Regional Weather Roundup
Issued by NWS

Home | Current Version | Previous Version | Text Only | Print | Product List | Glossary On
Versions: 1 2 3 4 5 6 7 8 9 10 11 12 13 14 15 16 17 18 19 20 21 22 23 24 25 26 27 28 29 30 31 32 33 34 35 36 37 38 39 40 41 42 43 44 45 46 47 48 49 50
201
ASUS42 KKEY 270610
RWRKEY

FLORIDA REGIONAL WEATHER ROUNDUP FOR THE FLORIDA KEYS
NATIONAL WEATHER SERVICE KEY WEST FLORIDA
200 AM EDT SAT MAY 27 2017

...SOUTH FLORIDA AND THE KEYS...

CITY           SKY/WX    TMP DP  RH WIND       PRES   REMARKS
FORT MYERS     CLEAR     77  70  79 N3        30.04F
SW REGIONAL AP CLEAR     75  69  81 N3        30.05F
NAPLES         CLEAR     79  70  74 NE3       30.05F
MIAMI          PTCLDY    82  77  84 E8        30.05F HX  90
WEST KENDALL   PTCLDY    81  77  88 SE3       30.05F
HOMESTEAD      CLEAR     79  79 100 CALM      30.04F
MARATHON       CLEAR     84  78  82 CALM      30.05F HX  95
BOCA CHICA NAS CLEAR     82  78  88 NE3       30.06S HX  91
KEY WEST INTL  PTCLDY    84  77  79 E3        30.06F HX  94

...INTERNATIONAL WEATHER...

CITY           SKY/WX    TMP DP  RH WIND       PRES   REMARKS
NASSAU BAHAMAS PTCLDY    82  75  78 CALM      30.06F
CANCUN MEXICO  MOCLDY    81  79  94 E10       30.02F
COZUMEL MEXICO PTCLDY    82  77  83 SE6       29.99F HX  91

ADJACENT COASTAL WATERS...

STATION/POSITION TIME  SKY/WX   TEMP    WIND        PRES    WAVE
                                AIR SEA DIR/SP/G            HT/PER
                 (UTC)          (F)     (DEG/KT/KT) (MB)    (FT/S)
PULASKI SHOAL LI 0600            82      50/  6/  6 1017.8F
SAND KEY         0550            83     150/  5/  6 1018.4F
LONG KEY         0500            85 87  210/  1/  1 1018.0R
MOLASSES REEF    0500            83 82  350/  2/  2 1018.1F
FOWEY ROCKS      0500            81 81  100/  9/ 10 1018.5F
Buoy 42097       0600                                 N/A     2/ 6

$$




USA.gov is the U.S. government's official web portal to all federal, state and local government web resources and services.